Hourly Data Report for September 01, 2021

WINNIPEG THE FORKS
MANITOBA
Current Station Operator: ECCC - MSC

49°53'18.008" N
97°07'46.007" W
230.00 m
5023262
71579
XWN

Download Data

Hourly Data (September 2021)
Hourly Data Report for September 1, 2021
TIME
LST
Temp Definition
°C
Dew Point Definition
°C
Rel Hum Definition
%
Precip. Amount Definition
mm

Wind Dir Definition
10's deg

Wind Spd Definition
km/h
Visibility Definition
km
Stn Press Definition
kPa
Hmdx Definition


Wind Chill Definition


Weather Definition


00:00 16.9 11.1 69 0.0 9 4   98.59     LegendNANA
01:00 16.4 11.1 71 0.0 8 4   98.58     LegendNANA
02:00 15.6 11.0 74 0.0 9 4   98.56     LegendNANA
03:00 15.3 10.9 75 0.0 9 4   98.57     LegendNANA
04:00 15.1 10.9 76 0.0 8 3   98.58     LegendNANA
05:00 15.3 11.0 75 0.0 10 4   98.55     LegendNANA
06:00 15.3 11.1 76 0.0 11 3   98.60     LegendNANA
07:00 16.0 11.5 75 0.0 11 3   98.66     LegendNANA
08:00 17.7 12.4 71 0.0 5 2   98.67     LegendNANA
09:00 19.8 13.1 65 0.0 34 2   98.69     LegendNANA
10:00 22.2 13.7 58 0.0 21 4   98.68 25   LegendNANA
11:00 23.9 13.9 54 0.0 23 3   98.62 27   LegendNANA
12:00 25.1 12.8 46 0.0 14 4   98.57 28   LegendNANA
13:00 25.3 13.1 47 0.0 1 5   98.50 28   LegendNANA
14:00 25.9 11.1 40 0.0 7 5   98.47 28   LegendNANA
15:00 25.9 10.8 39 0.0 14 5   98.45 28   LegendNANA
16:00 25.8 11.1 40 0.0 23 5   98.46 28   LegendNANA
17:00 25.6 11.2 40 0.0 32 4   98.47 27   LegendNANA
18:00 24.5 12.0 46 0.0 3 3   98.47 27   LegendNANA
19:00 23.1 13.1 53 0.0 10 5   98.46 26   LegendNANA
20:00 22.1 13.3 57 0.0 10 4   98.50 25   LegendNANA
21:00 21.5 12.6 57 0.0 7 3   98.51     LegendNANA
22:00 21.4 12.9 58 0.0 9 4   98.50     LegendNANA
23:00 21.1 13.4 61 0.0 11 3   98.51     LegendNANA

Notes on Data Quality.

Legend

  • E = Estimated
  • M = Missing
  • NA = Not Available*
  • [empty] = Indicates an unobserved value
Date modified: